Location: St. Louis
(38.6270°N, 90.1994°W)
Time: 01:18:17
(UTC-06:00)

Courier 1B Rocket - Pass Details

Date: 03 December 2021
Orbit: 920 x 1202 km, 28.2° (Epoch: 16 January)

Event Time Altitude Azimuth Distance (km) Brightness Sun altitude
Rises 03:17:00 0° 259° (W) 3,548 - -43.2°
Reaches altitude 10° 03:20:15 10° 243° (WSW) 2,614 - -42.6°
Maximum altitude 03:24:41 20° 198° (SSW) 1,998 - -41.7°
Drops below altitude 10° 03:29:15 10° 152° (SSE) 2,687 - -40.8°
Exits shadow 03:29:16 10° 152° (SSE) 2,693 7.5 -40.8°
Sets 03:32:39 0° 137° (SE) 3,678 8.5 -40.2°
